Dewpoint
46 46 46 45 45 45 46 48 48 48 49 49 49 51 52 52 52 53 53 53 53 53 51 49 48 48 48 48 48 48 50 41 39 39 36 35 44 59 60 59 51 55 53 32 28 27 27 28 24 25 26 24 24 24 24 20 16 13 11 7 6 3 -1 -2 -2 -1 -3 -7 -1 7 3 4 2 3 10 23 25 28 29 26 48 48 49 53 63 66 66 67
48 46 46 46 46 45 45 47 47 48 48 48 48 49 50 51 52 52 52 53 53 53 53 53 49 49 48 49 49 50 47 42 39 39 38 46 57 61 56 55 51 53 48 25 25 24 20 21 20 20 22 22 21 20 22 20 18 13 9 7 5 6 4 2 1 -1 -4 -6 -7 11 12 12 9 7 11 26 31 33 26 30 48 54 55 64 66 66 67 67
48 48 46 46 46 46 45 45 46 47 47 48 48 48 48 49 51 51 52 52 52 52 53 53 52 49 49 49 49 51 45 39 38 35 34 59 58 55 57 57 55 56 39 26 23 24 18 18 18 17 19 19 18 17 18 16 17 14 10 8 8 6 3 3 2 -1 -5 -9 -9 4 11 12 11 10 12 24 31 31 25 17 51 55 59 61 65 66 66 67
48 48 48 47 46 45 46 45 46 46 45 45 46 48 48 49 49 51 51 51 52 52 52 52 53 50 49 49 51 47 42 38 33 34 41 55 53 53 54 55 57 54 39 30 29 28 23 17 16 15 16 16 15 15 13 12 14 13 11 9 6 3 1 1 1 -2 -8 -4 -2 5 10 13 11 11 13 11 28 31 25 18 52 55 62 63 64 65 66 67
48 48 48 49 48 47 45 45 45 45 45 44 45 46 48 48 49 49 51 51 52 52 53 52 52 51 49 49 51 44 39 32 21 36 37 51 49 49 55 56 56 45 37 29 27 26 26 24 18 14 12 13 13 11 10 10 10 15 12 9 6 3 1 2 -1 -4 -3 2 3 2 7 11 10 11 13 17 24 27 24 17 29 56 63 64 64 64 66 67
47 48 48 48 49 49 49 47 45 45 45 45 44 45 47 49 48 50 51 51 51 51 52 52 52 51 49 51 45 42 39 28 29 33 43 53 53 56 52 54 56 50 39 32 26 24 23 22 19 15 12 11 11 8 9 8 8 11 12 9 7 4 1 0 -2 2 4 4 4 1 7 12 10 6 13 12 11 14 22 21 14 58 61 62 64 64 66 67
48 47 48 48 49 48 49 49 48 45 45 45 45 45 47 46 48 49 50 50 51 51 52 52 52 51 50 50 43 39 36 34 34 36 54 50 51 53 55 56 56 46 41 34 27 23 21 19 17 16 14 10 9 6 7 7 6 9 9 8 6 4 2 2 -0 9 8 5 1 4 8 8 3 6 11 9 10 12 14 48 46 60 62 64 64 65 66 66
48 47 47 48 47 48 48 48 48 45 45 45 46 46 44 46 48 49 49 48 50 51 51 52 52 52 50 43 39 34 32 31 27 36 51 58 37 40 54 34 34 39 37 33 28 22 19 17 15 16 15 11 8 6 4 5 6 7 9 8 5 4 3 1 -0 8 8 8 7 7 6 3 8 11 10 13 47 55 56 59 61 62 63 61 63 64 66 66
48 47 48 48 47 47 47 47 47 46 45 45 45 45 45 47 48 48 46 48 49 50 51 51 51 51 50 43 39 36 31 32 30 33 35 33 27 25 25 23 24 36 33 29 29 23 18 14 12 13 13 12 8 4 4 3 4 7 7 8 7 5 2 1 -0 8 10 11 11 8 6 7 9 11 9 44 50 54 57 58 59 61 62 64 64 64 65 65
47 48 48 48 47 47 47 46 45 46 45 45 45 45 46 46 47 46 47 47 47 48 50 51 51 51 46 40 36 32 32 26 27 27 28 27 26 24 24 24 24 39 34 25 24 24 19 15 10 11 12 11 7 2 1 1 1 5 6 6 7 6 5 6 4 6 10 11 10 6 4 5 9 8 9 54 52 57 57 61 61 62 63 62 61 63 66 65
47 47 47 47 47 48 48 48 47 45 45 46 46 46 45 46 46 46 47 47 46 47 48 50 51 50 44 40 35 31 32 24 29 30 32 30 28 24 22 23 23 38 36 25 21 22 21 17 11 10 11 10 7 2 -1 -1 1 1 4 5 5 7 5 5 10 11 11 9 10 6 4 6 8 7 7 53 59 57 58 60 60 60 59 60 61 60 61 61
47 47 47 47 47 47 48 48 47 45 45 46 46 46 45 45 45 46 46 46 47 47 47 50 51 47 43 39 34 33 35 33 37 35 33 31 28 25 22 23 23 26 37 28 21 21 20 18 14 9 9 11 8 5 1 1 -1 -0 3 1 2 4 4 3 8 13 13 10 8 6 5 6 7 6 56 58 58 59 60 60 60 60 60 60 60 61 61 62
46 47 46 46 47 47 47 47 47 47 45 45 45 46 46 45 45 45 46 46 46 47 47 48 50 47 42 38 36 37 37 36 35 35 34 33 31 28 25 23 23 24 25 31 28 22 20 18 14 10 9 9 7 5 3 2 -0 1 3 4 8 8 5 4 5 10 10 8 5 4 3 4 5 33 55 56 57 57 58 57 58 60 60 59 60 60 61 62
47 47 47 46 47 47 47 47 47 47 46 45 46 46 45 46 45 46 46 45 46 47 48 48 48 45 43 38 37 37 37 37 35 34 33 33 31 27 24 21 21 22 24 24 27 30 21 17 13 10 10 9 7 5 4 3 1 -0 2 2 6 6 5 3 2 7 8 8 5 4 6 4 4 50 54 57 58 58 57 57 58 59 59 58 59 59 60 61
47 47 47 47 47 47 47 47 47 47 46 45 45 45 46 45 45 46 46 46 46 46 48 50 44 43 41 36 37 37 46 39 35 33 32 31 29 26 22 18 19 20 21 22 23 29 28 16 11 8 7 10 10 7 4 3 4 3 3 5 5 4 4 3 1 3 7 6 6 5 8 6 15 51 55 58 58 58 57 57 58 58 58 58 58 59 59 60
47 47 47 47 47 47 47 47 47 47 47 46 45 46 46 46 46 45 46 46 47 47 42 37 41 41 36 33 32 40 34 34 34 34 31 30 29 25 20 16 18 19 19 19 20 25 28 18 7 7 6 8 9 8 4 -1 1 3 4 7 4 3 3 1 -0 2 6 5 6 5 3 4 43 49 52 59 57 57 56 56 58 59 60 60 59 60 59 60
47 48 47 47 46 47 46 47 47 46 46 45 45 46 46 47 47 47 46 46 44 44 39 37 35 37 36 34 34 32 30 29 29 29 31 31 27 20 16 16 16 17 17 17 17 23 27 21 10 6 5 7 9 8 7 5 3 3 2 5 2 2 3 -2 -2 2 5 4 3 4 2 3 45 50 54 56 55 54 55 57 59 59 59 59 58 59 59 60
47 47 47 47 46 46 46 46 46 45 45 45 45 45 43 46 47 47 45 46 42 36 35 37 37 38 34 36 32 28 28 27 26 24 24 24 21 15 14 17 17 16 17 15 16 18 24 18 9 3 4 6 9 9 8 4 6 6 7 8 5 4 2 -4 -7 -1 3 3 2 2 4 5 44 49 51 52 57 53 55 56 57 56 58 58 57 58 59 60
47 47 47 46 46 46 45 46 46 46 45 46 46 47 47 47 45 42 39 37 36 33 32 32 35 28 18 27 34 32 27 25 23 23 21 19 17 17 18 20 18 16 14 14 14 17 20 15 9 6 4 6 10 9 6 5 4 2 4 6 4 3 -1 -4 -7 -4 3 2 1 -0 5 5 33 46 49 52 55 51 54 56 57 56 56 58 57 57 59 60
47 47 47 47 46 46 45 46 46 46 46 44 38 36 36 37 39 37 39 38 31 27 25 26 33 29 23 21 24 31 28 26 24 25 24 21 21 19 18 19 20 16 14 15 15 15 16 11 6 3 3 7 10 10 5 4 5 3 4 4 2 -2 -4 -5 -7 -7 2 2 1 -0 6 7 20 45 49 52 52 51 53 55 56 56 56 57 57 58 60 61
47 47 47 47 47 46 46 46 46 46 46 44 41 37 30 28 24 20 26 33 33 28 27 24 31 30 26 26 26 25 21 21 22 21 24 24 19 16 15 18 18 15 14 15 15 14 11 9 6 2 5 8 9 9 8 3 5 3 0 1 -0 -3 -6 -6 -7 -8 1 6 1 3 2 7 2 44 44 51 52 52 53 54 55 56 56 57 57 59 60 60
47 47 47 47 47 47 46 46 46 46 46 45 41 36 31 28 28 28 27 22 23 28 28 25 23 27 30 29 28 28 27 25 20 19 21 21 15 11 11 15 16 13 15 16 15 12 11 9 7 7 8 8 7 5 5 4 3 2 0 1 -0 -3 -6 -6 -6 -7 1 3 4 1 0 5 14 42 43 45 48 52 53 55 56 55 56 56 58 59 60 60
47 47 47 47 46 46 46 46 46 47 44 42 37 34 33 33 33 31 30 26 24 25 24 26 23 21 20 25 26 26 25 25 20 19 17 14 11 10 9 11 15 14 14 16 14 13 11 8 8 7 7 3 1 2 4 5 4 4 2 1 0 -2 -7 -6 -6 -4 4 8 4 4 3 6 35 43 42 45 45 51 53 55 56 58 55 56 58 59 58 59
47 47 47 47 46 45 46 46 47 44 42 40 38 38 39 37 36 38 36 28 23 22 20 21 23 21 17 19 23 24 24 24 22 20 22 15 9 10 9 9 11 13 13 15 12 8 5 6 7 5 2 1 2 4 5 6 4 4 1 -1 -1 -2 -6 -6 -5 -3 2 4 6 5 9 16 33 43 40 41 45 49 52 54 55 55 56 59 61 59 58 59
47 47 47 46 45 45 45 47 42 39 40 39 37 42 42 40 38 38 38 28 24 23 24 19 19 20 21 20 20 20 22 24 22 21 21 19 16 12 10 10 10 11 13 14 12 7 6 5 5 4 2 2 2 1 2 3 3 3 2 1 -0 -2 -4 -5 1 1 6 8 5 3 2 7 32 38 43 43 45 45 48 52 52 54 56 56 58 58 59 60
47 47 47 47 45 45 46 41 40 41 38 40 41 43 43 39 42 39 33 26 16 12 17 14 17 15 20 18 17 18 20 19 23 25 23 19 20 15 12 11 10 9 12 13 11 10 6 5 3 4 3 1 -0 2 3 3 4 5 1 1 3 -0 -3 -4 -1 3 7 6 3 3 5 13 31 35 43 44 44 45 47 48 50 52 54 57 58 58 59 60
47 47 47 47 45 45 40 37 37 40 38 39 41 42 40 41 44 40 29 16 12 9 8 12 14 12 16 17 17 17 17 17 21 23 22 18 15 17 12 11 11 10 12 15 15 9 7 4 3 4 4 3 4 5 5 4 2 -0 -1 3 6 7 -2 -4 3 6 8 8 5 1 -0 13 29 35 43 43 43 44 45 47 48 52 56 56 58 58 59 59
46 46 47 48 45 45 41 40 40 40 37 40 43 41 41 41 40 41 25 6 5 4 2 13 11 11 14 15 18 17 17 18 18 21 22 19 15 13 13 11 10 9 10 11 11 9 10 5 4 4 5 4 4 4 3 1 -1 -3 3 7 9 7 2 -4 -2 8 10 8 7 4 1 15 21 33 35 44 46 48 48 47 47 49 54 56 57 58 58 59
46 47 47 47 47 46 45 42 40 39 37 42 41 41 43 43 41 30 15 4 20 11 10 10 11 15 13 15 17 18 16 18 16 20 22 21 16 12 12 14 12 9 10 11 9 8 8 7 6 7 6 5 6 3 0 0 -1 2 7 7 6 4 1 -4 2 3 11 13 13 7 4 11 12 27 34 38 45 45 46 48 45 50 53 55 56 56 58 58
46 47 47 47 46 44 45 45 43 45 40 43 43 43 42 41 33 15 13 8 33 21 26 12 11 13 13 14 16 17 16 16 16 19 20 19 17 13 12 15 13 10 9 11 10 8 7 14 13 8 5 6 6 2 0 1 1 4 4 2 2 2 4 7 9 7 13 14 12 3 3 9 12 22 32 34 37 44 45 46 45 50 55 56 56 56 57 58
46 47 47 48 43 41 40 36 42 42 41 44 42 43 39 34 23 8 8 10 27 27 26 17 12 13 13 14 12 16 16 17 16 19 18 18 14 14 14 13 14 11 11 12 10 8 7 6 6 6 9 7 5 2 3 4 2 2 2 -0 -0 5 7 12 15 12 14 12 9 8 11 12 14 18 28 34 36 35 39 43 45 49 52 54 56 56 57 58
47 47 47 46 43 43 39 37 40 41 46 43 43 41 37 20 21 16 12 35 22 27 27 26 24 27 13 15 14 14 15 17 18 15 14 13 13 12 13 17 15 13 10 11 8 7 6 5 8 6 13 5 4 3 -2 -4 -3 1 4 0 4 6 16 8 15 18 15 15 12 5 6 13 15 20 29 33 35 35 38 41 44 47 52 54 57 57 57 58
47 47 47 45 45 41 39 39 39 42 45 45 42 38 30 19 14 15 17 24 20 29 26 29 27 28 26 14 15 15 15 15 17 12 12 12 11 12 15 17 15 16 10 15 12 10 7 6 8 7 6 10 3 -2 -1 3 5 4 4 4 7 6 9 13 6 13 13 12 9 8 8 11 19 19 19 35 36 35 36 40 51 50 54 55 56 58 58 59
48 48 45 43 42 40 39 41 41 40 42 42 37 33 28 20 17 30 25 27 26 33 32 31 28 28 25 17 16 17 10 14 15 9 10 10 11 16 16 18 16 15 15 16 11 5 10 8 3 -0 1 2 3 3 1 -3 -1 -1 -2 1 10 8 8 12 3 10 10 8 7 2 8 14 13 18 32 38 37 35 34 44 49 50 54 55 56 58 58 58
48 49 47 45 44 41 41 37 38 40 41 37 35 28 21 18 20 22 22 27 28 29 26 26 24 24 22 17 16 16 12 14 13 7 8 8 10 13 16 16 16 12 11 12 15 17 9 5 2 2 3 1 3 2 -3 -3 -3 -3 -1 2 7 10 10 5 11 9 9 6 8 11 14 14 15 33 28 35 33 32 35 51 51 53 55 55 57 57 58 58
46 45 44 41 40 40 39 38 39 39 37 35 30 24 21 23 20 27 26 30 29 26 27 27 25 21 20 13 11 13 13 16 10 8 8 6 7 10 13 15 14 12 13 16 18 13 7 12 10 9 9 7 5 4 -2 -3 7 1 1 7 6 6 6 18 18 25 25 14 8 15 14 36 34 34 27 32 32 31 36 49 50 53 55 57 57 57 57 58
43 44 39 38 39 38 38 38 36 38 36 33 28 22 24 24 24 24 27 28 28 30 29 23 20 22 17 12 12 11 9 12 10 7 8 5 7 7 8 10 13 12 11 13 15 11 12 14 12 11 9 6 5 1 -3 -2 -2 -2 -0 2 5 5 7 16 10 17 16 10 14 12 7 29 30 31 31 28 30 31 50 48 51 53 55 56 57 57 57 57
43 44 42 37 34 34 36 38 39 37 34 32 26 28 27 25 27 27 30 31 31 32 27 25 27 21 18 12 12 9 9 10 12 8 7 4 7 6 7 9 10 10 11 12 16 17 15 14 11 9 8 1 -0 -3 -4 -3 -3 -5 -2 1 2 13 9 12 18 14 14 15 10 7 5 19 18 26 29 28 44 47 51 51 52 53 53 54 56 57 57 57
43 44 39 38 35 33 37 39 39 35 34 29 26 25 26 25 28 32 33 33 32 32 28 27 26 22 20 13 11 9 7 10 11 11 10 7 8 9 7 9 9 9 10 14 15 28 21 16 11 10 6 -1 -1 -2 3 -1 -1 -1 -0 -2 -1 8 12 13 16 13 13 12 15 7 8 10 16 26 27 27 46 47 49 53 53 53 53 54 54 56 56 57
43 40 38 39 38 42 42 40 39 36 33 27 25 26 27 29 31 33 32 32 30 31 28 27 28 28 21 13 10 8 6 9 9 12 9 11 7 8 7 8 8 9 10 14 13 16 18 28 12 6 1 -2 -1 -1 -1 -0 3 -1 -3 -0 -1 14 7 6 17 9 11 13 11 12 10 14 21 21 29 29 36 48 48 50 53 53 54 54 54 54 55 57
43 40 40 45 44 47 45 44 37 33 30 30 29 27 28 28 33 34 35 35 34 33 31 30 30 29 23 13 9 7 8 10 10 11 8 7 7 11 7 6 8 9 9 13 13 17 20 17 19 7 5 1 -2 -1 1 1 -1 -3 2 2 -2 2 3 4 11 9 10 11 15 9 15 22 27 20 35 34 35 38 41 49 50 52 54 55 55 55 55 57
39 34 38 46 49 46 44 35 35 37 34 30 29 32 32 37 35 34 35 35 34 32 33 32 31 31 29 30 9 7 8 11 9 12 9 8 9 7 7 6 7 6 8 18 16 18 23 23 22 15 10 7 3 2 4 2 1 -0 -1 -1 -3 5 6 6 9 11 5 8 9 12 15 26 40 34 38 38 37 34 40 44 48 52 53 54 55 56 57 57
40 37 46 47 49 44 40 33 33 34 32 31 33 34 36 36 35 35 33 34 34 33 33 32 33 31 30 30 15 8 10 12 8 13 11 8 9 8 7 7 7 11 14 16 14 18 34 22 17 14 10 8 7 4 5 3 0 -1 -1 -0 -2 3 4 7 10 18 14 15 11 10 15 35 42 45 45 42 39 42 43 45 47 53 53 54 56 55 55 55
38 38 44 48 48 47 36 29 28 29 33 34 34 34 35 35 35 34 33 34 34 34 33 34 33 33 30 23 14 10 11 16 9 11 9 9 11 8 6 6 8 7 10 18 19 26 20 25 18 13 12 10 12 7 2 -0 1 5 4 6 1 -1 0 12 12 21 16 14 10 11 9 29 44 44 36 34 33 45 47 48 49 50 54 55 55 55 55 55
39 39 41 45 45 44 33 36 32 31 31 32 32 32 35 36 37 36 35 35 37 37 36 34 33 29 27 25 18 11 11 13 17 12 9 10 14 8 6 7 3 11 12 18 37 19 20 24 20 15 14 12 12 9 7 5 7 10 4 1 3 3 14 15 13 16 13 18 9 13 10 33 39 44 35 31 36 48 48 49 50 52 55 54 55 55 55 55
38 32 35 41 42 41 39 41 37 34 32 31 31 33 34 32 37 38 37 35 35 36 36 36 34 31 26 22 13 12 10 14 17 16 10 13 11 5 6 5 6 8 26 39 32 21 24 25 21 18 13 12 12 9 11 9 8 7 8 3 4 6 5 16 16 15 13 19 17 17 18 34 36 38 29 33 46 47 47 47 50 53 55 55 55 55 55 55
41 35 34 31 37 40 37 39 35 35 32 36 30 34 32 35 37 38 38 36 34 39 37 37 34 29 26 14 19 13 11 15 17 13 14 16 10 6 5 7 4 17 46 31 32 22 21 19 21 24 18 13 9 8 7 8 8 8 8 7 1 6 13 20 17 15 18 17 11 21 38 37 31 34 36 41 45 46 47 47 49 52 54 54 54 55 54 55
34 36 37 39 35 31 33 33 38 34 36 35 34 35 34 35 35 33 38 37 37 39 37 31 30 29 18 17 19 20 16 18 17 21 14 13 10 9 1 2 7 32 25 12 15 23 21 19 21 22 19 10 9 8 8 7 6 9 10 16 15 10 15 20 27 17 24 16 13 31 34 33 31 35 41 43 46 46 46 48 51 53 53 54 54 54 54 54
39 37 37 37 33 34 36 36 38 38 37 38 34 35 35 36 35 35 36 34 38 37 34 30 31 23 12 15 19 19 19 18 22 19 19 18 17 16 16 14 11 14 12 16 16 29 24 18 22 18 19 19 26 21 11 11 14 6 8 8 11 15 17 17 17 17 20 24 22 25 38 35 28 30 38 43 46 47 49 51 53 52 53 53 53 53 53 53
37 36 35 37 36 34 36 40 41 40 38 40 34 36 37 36 35 36 35 36 34 34 33 33 31 30 33 15 15 17 20 21 23 24 24 22 20 19 18 19 13 10 6 18 16 27 23 17 23 20 17 20 23 20 18 19 16 16 9 9 13 14 13 13 18 24 27 23 26 26 22 25 31 37 38 45 50 52 52 52 51 52 52 53 53 53 53 53
43 42 41 36 33 34 36 39 41 40 36 39 38 38 38 37 36 36 35 35 36 35 34 36 35 37 36 24 19 31 35 20 20 24 22 22 19 17 17 18 11 20 22 20 23 29 25 22 19 22 18 20 21 21 22 20 16 15 16 18 15 18 21 20 19 23 22 23 27 29 24 22 25 34 42 47 51 51 50 51 51 52 52 52 52 52 51 51
46 45 42 39 33 35 35 40 42 41 33 41 40 39 38 37 37 39 33 37 37 35 38 37 39 39 32 33 35 37 36 32 31 20 20 14 14 11 9 9 4 14 12 22 26 19 24 22 21 20 17 20 25 22 23 20 17 17 22 19 20 23 20 22 18 23 27 29 23 20 17 24 29 39 45 49 51 50 50 50 50 51 52 52 51 51 51 51